Location: Bailleul
(50.3375°N, 2.8513°E)
Time: 05:29:28
(UTC+00:00)

Cosmos 389 Rocket - Pass Details

Date: 19 April 2021
Orbit: 441 x 472 km, 81.1° (Epoch: 09 May)

Event Time Altitude Azimuth Distance (km) Brightness Sun altitude
Exits shadow 20:59:51 - 214° (SSW) 1,911 5.4 -18.2°
Reaches altitude 10° 21:00:37 10° 218° (SW) 1,609 5.1 -18.3°
Maximum altitude 21:03:56 38° 288° (WNW) 724 3.9 -18.6°
Drops below altitude 10° 21:07:18 10° 358° (N) 1,638 5.9 -19.0°
Sets 21:09:31 0° 7° (N) 2,525 6.8 -19.2°
